Weather History for EDLN - November, 2012

Change the Weather History Date:

Thursday, November 22, 2012

  Actual Average Record
Temperature  
Mean Temperature 48 °F -  
Max Temperature 55 °F 43 °F 55 °F (2004)
Min Temperature 41 °F 34 °F 21 °F (1998)
Degree Days  
Heating Degree Days 17    
Moisture  
Dew Point 38 °F    
Average Humidity 70    
Maximum Humidity 100    
Minimum Humidity 51    
Precipitation  
Precipitation 0.00 in - - ()
Sea Level Pressure  
Sea Level Pressure 30.15 in    
Wind  
Wind Speed 6 mph ()    
Max Wind Speed 12 mph    
Max Gust Speed -    
Visibility 6.2 miles    
Events      
Averages and records for this station are not official NWS values.
T = Trace of Precipitation, MM = Missing Value Source: Averaged Metar Reports

Daily Weather History Graph

Daily Weather History Graph

Search for Another Location

Airport or City:

Trip Planner

Search our weather history database for the weather conditions in past years. The results will help you decide how hot, cold, wet, or windy it might be!

Date:

Astronomy

Nov. 22, 2012 Rise Set
Actual Time 8:03 AM CET 4:36 PM CET
Civil Twilight 7:25 AM CET 5:14 PM CET
Nautical Twilight 6:44 AM CET 5:55 PM CET
Astronomical Twilight 6:04 AM CET 6:35 PM CET
Moon 1:47 PM CET (11/22) 1:30 AM CET (11/22)
Length of Visible Light 9h 49m
Length of Day
8h 33m
Waxing Gibbous, 69% of the Moon is Illuminated
Nov 22
Waxing Gibbous
Nov 28
Full
Dec 6
Last Quarter
Dec 13
New
Dec 20
First Quarter

Hourly Weather History & Observations

Time (CET) Temp. Windchill Dew Point Humidity Pressure Visibility Wind Dir Wind Speed Gust Speed Precip Events Conditions
7:50 AM 42.8 °F 41.1 °F 41.0 °F 93% 30.18 in 6.2 mi Variable 3.5 mph - N/A   Scattered Clouds
8:20 AM 41.0 °F 39.0 °F 41.0 °F 100% 30.18 in 6.2 mi South 3.5 mph - N/A   Partly Cloudy
8:50 AM 42.8 °F 41.1 °F 41.0 °F 93% 30.18 in - Variable 3.5 mph - N/A   Clear
9:20 AM 44.6 °F 42.2 °F 41.0 °F 87% 30.18 in - South 4.6 mph - N/A   Clear
9:50 AM 46.4 °F 43.5 °F 41.0 °F 81% 30.18 in - South 5.8 mph - N/A   Clear
10:20 AM 48.2 °F - 41.0 °F 76% 30.18 in - South 5.8 mph - N/A   Clear
10:50 AM 50.0 °F - 41.0 °F 71% 30.18 in - South 5.8 mph - N/A   Clear
11:20 AM 51.8 °F - 41.0 °F 67% 30.18 in - South 6.9 mph - N/A   Clear
11:50 AM 51.8 °F - 41.0 °F 67% 30.18 in - South 8.1 mph - N/A   Clear
12:20 PM 53.6 °F - 39.2 °F 58% 30.18 in - SSW 9.2 mph - N/A   Clear
12:50 PM 55.4 °F - 39.2 °F 54% 30.18 in - SSW 10.4 mph - N/A   Clear
1:20 PM 55.4 °F - 37.4 °F 51% 30.15 in - SSW 11.5 mph - N/A   Clear
1:50 PM 53.6 °F - 37.4 °F 54% 30.15 in - SSW 11.5 mph - N/A   Clear
2:20 PM 53.6 °F - 37.4 °F 54% 30.15 in 6.2 mi South 9.2 mph - N/A   Partly Cloudy
2:50 PM 53.6 °F - 35.6 °F 51% 30.15 in - South 11.5 mph - N/A   Clear
3:20 PM 53.6 °F - 35.6 °F 51% 30.15 in - SSW 11.5 mph - N/A   Clear
3:50 PM 51.8 °F - 37.4 °F 58% 30.15 in - South 6.9 mph - N/A   Clear
4:20 PM 50.0 °F - 37.4 °F 62% 30.15 in - South 6.9 mph - N/A   Clear
4:50 PM 48.2 °F - 37.4 °F 66% 30.12 in - SSE 8.1 mph - N/A   Clear
5:20 PM 46.4 °F 42.9 °F 37.4 °F 71% 30.12 in - SSE 6.9 mph - N/A   Clear
5:50 PM 44.6 °F 40.2 °F 37.4 °F 76% 30.12 in - SSE 8.1 mph - N/A   Clear
6:20 PM 44.6 °F 40.2 °F 35.6 °F 71% 30.12 in - South 8.1 mph - N/A   Clear
6:50 PM 44.6 °F 40.7 °F 35.6 °F 71% 30.12 in - South 6.9 mph - N/A   Clear
7:20 PM 44.6 °F 40.2 °F 37.4 °F 76% 30.12 in - South 8.1 mph - N/A   Clear
7:50 PM 42.8 °F 38.6 °F 35.6 °F 76% 30.12 in - SSE 6.9 mph - N/A   Clear
8:20 PM 42.8 °F 38.6 °F 35.6 °F 76% 30.12 in - SSE 6.9 mph - N/A   Clear